Flag for U.S.A. Weather past 2 weeks in Jersey City, New Jersey, U.S.A.

Now
25 °F

Snow. Ice fog.


Feels Like: 19 °F
Forecast: 15 / 31 °F
Wind: 5 mph from South

Location: Newark International Airport

Current Time: Mar 1, 2015 at 3:14:05 PM

Latest Report: Mar 1, 2015 at 1:51 PM


Visibility: 0 mi

Pressure: 30.51 "Hg

Humidity: 88%

Dew point: 22 °F

Location of Jersey CityLocation

Historic Weather in Jersey City — Graph

°F

Jersey City temperature yesterday

Maximum temperature yesterday: 30 °F (at 2:51 PM)
Minimum temperature yesterday: 13 °F (at 6:51 AM)
Average temperature yesterday: 22 °F

Past Weeks' High & Low Weather Summary

 TemperatureHumidityPressure
High42 °F (Feb 22, 3:51 PM)96% (Feb 21, 6:51 PM)30.83 "Hg (Feb 21, 6:51 PM)
Low1 °F (Feb 20, 5:51 AM)27% (Feb 28, 3:51 PM)29.46 "Hg (Feb 14, 11:51 PM)
Average21 °F55%30.14 "Hg
* Reported Feb 14 1:51 PM — Mar 1 1:51 PM, Jersey City, Weather by CustomWeather, © 2015

Note: Actual official high and low records may vary slightly from our data, if they occured in-between our weather recording intervals... More about our weather records

Advertising

Jersey City weather history for previous 24 hours

 ConditionsComfort  
Time TempWeatherWind HumidityBarometerVisibility
1:51 PM
Sun, Mar 1
25 °FSnow. Ice fog.5 mph88%30.51 "Hg1 mi
1:00 PM25 °FLight snow. Mostly cloudy.8 mph80%30.55 "Hg1 mi
11:51 AM29 °FMostly cloudy.13 mph39%30.58 "Hg10 mi
10:51 AM29 °FMostly cloudy.10 mph36%30.61 "Hg10 mi
9:51 AM28 °FMore clouds than sun.8 mph37%30.61 "Hg10 mi
8:51 AM27 °FMostly cloudy.No wind39%30.64 "Hg10 mi
7:51 AM24 °FMostly cloudy.No wind48%30.66 "Hg10 mi
6:51 AM23 °FOvercast.5 mph46%30.66 "Hg10 mi
5:51 AM21 °FOvercast.3 mph52%30.69 "Hg10 mi
4:51 AM20 °FMostly cloudy.No wind52%30.69 "Hg10 mi
3:51 AM19 °FPassing clouds.7 mph54%30.69 "Hg10 mi
2:51 AM20 °FPassing clouds.No wind55%30.70 "Hg10 mi
1:51 AM20 °FPassing clouds.No wind52%30.72 "Hg10 mi
12:51 AM22 °FPassing clouds.No wind42%30.72 "Hg10 mi
11:51 PM
Sat, Feb 28
22 °FPassing clouds.No wind44%30.73 "Hg10 mi
10:51 PM23 °FPassing clouds.5 mph42%30.76 "Hg10 mi
9:51 PM24 °FPassing clouds.5 mph40%30.76 "Hg10 mi
8:51 PM25 °FPassing clouds.6 mph37%30.76 "Hg10 mi
7:51 PM24 °FPassing clouds.6 mph44%30.75 "Hg10 mi
6:51 PM25 °FPassing clouds.8 mph46%30.75 "Hg10 mi
5:51 PM29 °FPassing clouds.3 mph30%30.73 "Hg10 mi
4:51 PM30 °FPassing clouds.No wind27%30.74 "Hg10 mi
3:51 PM30 °FScattered clouds.3 mph27%30.73 "Hg10 mi
Weather by CustomWeather, © 2015

See weather overviewHow to use our weather pages